Weather History for Volk, WI

Change the Weather History Date:

Friday, July 5, 2013

  Actual Average Record
Temperature  
Mean Temperature 70 °F -  
Max Temperature 85 °F 77 °F 98 °F (2012)
Min Temperature 55 °F 62 °F 49 °F (2008)
Cooling Degree Days 4    
Growing Degree Days 20 (Base 50)    
Moisture  
Dew Point 59 °F    
Average Humidity 81    
Maximum Humidity 100    
Minimum Humidity 42    
Precipitation  
Precipitation 0.00 in - - ()
Sea Level Pressure  
Sea Level Pressure 30.00 in    
Wind  
Wind Speed 3 mph (ESE)    
Max Wind Speed 15 mph    
Max Gust Speed 21 mph    
Visibility 7 miles    
Events Fog    
Averages and records for this station are not official NWS values.
T = Trace of Precipitation, MM = Missing Value Source: NWS Daily Summary

Daily Weather History Graph

Daily Weather History Graph

Search for Another Location

Airport:

Trip Planner

Search our weather history database for the weather conditions in past years. The results will help you decide how hot, cold, wet, or windy it might be!

Date:

Astronomy

Jul. 05, 2013 Rise Set
Actual Time 5:24 AM CDT 8:46 PM CDT
Civil Twilight 4:49 AM CDT 9:21 PM CDT
Nautical Twilight 4:02 AM CDT 10:08 PM CDT
Astronomical Twilight 3:04 AM CDT 11:06 PM CDT
Moon 3:26 AM CDT (7/5) 6:39 PM CDT (7/5)
Length of Visible Light 16h 32m
Length of Day
15h 21m
Waning Crescent, 6% of the Moon is Illuminated
Jul 5
Waning Crescent
Jul 8
New
Jul 15
First Quarter
Jul 22
Full
Jul 29
Last Quarter

Hourly Weather History & Observations

Time (CDT) Temp. Heat Index Dew Point Humidity Pressure Visibility Wind Dir Wind Speed Gust Speed Precip Events Conditions
12:58 AM 59.4 °F - 59.0 °F 99% 30.01 in 10.0 mi Calm Calm - N/A   Clear
1:58 AM 57.6 °F - 57.4 °F 99% 30.01 in 10.0 mi South 6.9 mph - N/A   Unknown
2:58 AM 63.0 °F - 59.4 °F 88% 30.00 in 10.0 mi Calm Calm - N/A   Clear
3:33 AM 57.2 °F - 57.2 °F 100% 30.00 in 9.0 mi ENE 1.2 mph - N/A   Clear
3:48 AM 57.2 °F - 57.2 °F 100% 30.00 in 10.0 mi NNE 1.2 mph - N/A   Clear
3:58 AM 57.7 °F - 57.7 °F 100% 30.01 in 10.0 mi ENE 1.2 mph - N/A   Clear
4:03 AM 57.2 °F - 57.2 °F 100% 30.01 in 9.0 mi East 3.5 mph - N/A   Clear
4:33 AM 55.4 °F - 55.4 °F 100% 30.01 in 5.0 mi East 3.5 mph - N/A   Clear
4:38 AM 55.4 °F - 55.4 °F 100% 30.01 in 5.0 mi East 2.3 mph - N/A   Clear
4:43 AM 55.4 °F - 55.4 °F 100% 30.01 in 2.5 mi East 3.5 mph - N/A   Clear
4:48 AM 55.4 °F - 55.4 °F 100% 30.01 in 1.0 mi East 2.3 mph - N/A   Clear
4:53 AM 55.4 °F - 55.4 °F 100% 30.01 in 0.8 mi East 4.6 mph - N/A   Clear
4:58 AM 55.4 °F - 55.4 °F 100% 30.01 in 0.8 mi East 3.5 mph - N/A   Clear
5:03 AM 55.4 °F - 55.4 °F 100% 30.01 in 0.5 mi East 4.6 mph - N/A Fog Fog
5:08 AM 55.4 °F - 55.4 °F 100% 30.01 in 0.2 mi East 3.5 mph - N/A Fog Fog
5:13 AM 55.4 °F - 55.4 °F 100% 30.01 in 0.5 mi ESE 2.3 mph - N/A Fog Fog
5:18 AM 55.4 °F - 55.4 °F 100% 30.02 in 1.2 mi NNE 1.2 mph - N/A   Clear
5:23 AM 57.2 °F - 57.2 °F 100% 30.02 in 3.0 mi Calm Calm - N/A   Clear
5:58 AM 55.4 °F - 55.4 °F 100% 30.02 in 2.5 mi Calm Calm - N/A   Clear
6:03 AM 55.4 °F - 55.4 °F 100% 30.02 in 4.0 mi ENE 2.3 mph - N/A   Clear
6:58 AM 62.6 °F - 60.8 °F 94% 30.02 in 10.0 mi Calm Calm - N/A   Clear
7:58 AM 69.8 °F - 60.8 °F 73% 30.03 in 10.0 mi Variable 3.5 mph - N/A   Clear
8:58 AM 73.4 °F - 64.4 °F 73% 30.04 in 10.0 mi SSE 6.9 mph - N/A   Clear
9:58 AM 77.0 °F - 64.4 °F 65% 30.03 in 10.0 mi Variable 5.8 mph - N/A   Clear
10:58 AM 80.6 °F 81.8 °F 62.6 °F 54% 30.02 in 10.0 mi South 8.1 mph - N/A   Clear
11:58 AM 80.6 °F 81.8 °F 62.6 °F 54% 30.01 in 10.0 mi SW 10.4 mph - N/A   Partly Cloudy
12:58 PM 82.4 °F 82.9 °F 60.8 °F 48% 30.00 in 10.0 mi South 10.4 mph 17.3 mph N/A   Partly Cloudy
1:58 PM 84.2 °F 83.8 °F 59.0 °F 42% 29.99 in 10.0 mi SSE 15.0 mph - N/A   Partly Cloudy
2:58 PM 84.2 °F 84.4 °F 60.8 °F 45% 29.99 in 10.0 mi South 9.2 mph - N/A   Scattered Clouds
3:58 PM 82.8 °F 83.0 °F 60.1 °F 46% 29.98 in 10.0 mi South 11.5 mph 20.7 mph N/A   Partly Cloudy
4:58 PM 84.2 °F 84.4 °F 60.8 °F 45% 29.97 in 10.0 mi South 10.4 mph 17.3 mph N/A   Clear
5:58 PM 83.1 °F 83.3 °F 60.6 °F 46% 29.96 in 10.0 mi South 12.7 mph 18.4 mph N/A   Clear
6:58 PM 82.0 °F 82.8 °F 61.7 °F 50% 29.96 in 10.0 mi South 9.2 mph - N/A   Clear
7:58 PM 79.0 °F - 61.5 °F 55% 29.97 in 10.0 mi South 3.5 mph - N/A   Clear
8:58 PM 74.5 °F - 61.9 °F 65% 29.97 in 10.0 mi Calm Calm - N/A   Clear
9:58 PM 68.0 °F - 61.7 °F 80% 29.97 in 10.0 mi ESE 2.3 mph - N/A   Clear
10:58 PM 63.3 °F - 61.7 °F 94% 29.98 in 10.0 mi ESE 2.3 mph - N/A   Clear
11:58 PM 67.6 °F - 61.3 °F 80% 29.99 in 10.0 mi Variable 1.2 mph - N/A   Clear